TVS2782 LKPR-DTTJ

Flight info

Callsign TVS2782
Flight time 2h 42m
Altitude 33000
Route VOZ DCT PISAM DCT TAGAS/N0440F360 DCT OSPEN DCT RADLY DCT SABAD DCT LSJ DCT EDUGI/N0440F370 DCT SENTI/N0439F380 DCT RALAK P623 JBA
Aircraft B738/M-SDFGHIJ1LORVWXYZ/LB1

Departure

Time 2026-04-25 19:23
Airport Václav Havel Airport Prague (LKPR)

Arrival

Time 2026-04-25 22:06
Airport Djerba Zarzis International Airport (DTTJ)
Time Latitude Longitude Altitude Speed Heading
2026-04-25 18:46 50.10676 14.26427 1169 ft 0 kts 214°
2026-04-25 19:10 50.10679 14.26431 1171 ft 3 kts 214°
2026-04-25 19:10 50.10696 14.26449 1171 ft 3 kts 217°
2026-04-25 19:11 50.10708 14.26465 1169 ft 1 kts 237°
2026-04-25 19:11 50.10712 14.26478 1170 ft 1 kts 279°
2026-04-25 19:11 50.10707 14.26497 1169 ft 3 kts 305°
2026-04-25 19:11 50.10705 14.26501 1169 ft 3 kts 306°
2026-04-25 19:12 50.10710 14.26491 1170 ft 0 kts 306°
2026-04-25 19:14 50.10714 14.26481 1170 ft 3 kts 305°
2026-04-25 19:14 50.10740 14.26423 1169 ft 10 kts 306°
2026-04-25 19:15 50.10786 14.26321 1170 ft 11 kts 304°
2026-04-25 19:15 50.10770 14.26223 1173 ft 10 kts 219°
2026-04-25 19:15 50.10714 14.26159 1170 ft 10 kts 216°
2026-04-25 19:15 50.10650 14.26093 1172 ft 12 kts 213°
2026-04-25 19:16 50.10576 14.26019 1173 ft 13 kts 212°
2026-04-25 19:16 50.10504 14.25987 1174 ft 11 kts 158°
2026-04-25 19:16 50.10454 14.26074 1171 ft 11 kts 127°
2026-04-25 19:16 50.10409 14.26165 1175 ft 11 kts 127°
2026-04-25 19:17 50.10353 14.26280 1174 ft 17 kts 128°
2026-04-25 19:17 50.10270 14.26452 1174 ft 23 kts 126°
2026-04-25 19:17 50.10167 14.26667 1176 ft 25 kts 127°
2026-04-25 19:17 50.10064 14.26878 1189 ft 24 kts 127°
2026-04-25 19:18 50.09967 14.27077 1197 ft 23 kts 127°
2026-04-25 19:18 50.09874 14.27271 1201 ft 23 kts 128°
2026-04-25 19:18 50.09767 14.27446 1204 ft 22 kts 135°
2026-04-25 19:18 50.09654 14.27618 1207 ft 23 kts 135°
2026-04-25 19:19 50.09543 14.27787 1211 ft 22 kts 134°
2026-04-25 19:19 50.09436 14.27952 1215 ft 22 kts 136°
2026-04-25 19:19 50.09322 14.28127 1214 ft 23 kts 135°
2026-04-25 19:19 50.09285 14.28184 1213 ft 23 kts 135°
2026-04-25 19:20 50.09147 14.28263 1210 ft 0 kts 211°
2026-04-25 19:21 50.09145 14.28261 1210 ft 2 kts 211°
2026-04-25 19:21 50.09071 14.28171 1208 ft 9 kts 227°
2026-04-25 19:21 50.09074 14.28102 1207 ft 6 kts 313°
2026-04-25 19:22 50.09080 14.28089 1207 ft 0 kts 307°
2026-04-25 19:22 50.09208 14.27830 1210 ft 64 kts 307°
2026-04-25 19:23 50.09613 14.26992 1205 ft 127 kts 307°
2026-04-25 19:23 50.10947 14.24250 2222 ft 159 kts 308°
2026-04-25 19:23 50.11607 14.22982 3237 ft 150 kts 305°
2026-04-25 19:24 50.12255 14.21614 3703 ft 171 kts 305°
2026-04-25 19:24 50.12891 14.19954 4163 ft 185 kts 288°
2026-04-25 19:24 50.11779 14.15885 4840 ft 241 kts 225°
2026-04-25 19:25 50.08351 14.14524 6143 ft 280 kts 169°
2026-04-25 19:25 50.06524 14.15827 6723 ft 301 kts 149°
2026-04-25 19:25 50.04817 14.17791 7492 ft 304 kts 145°
2026-04-25 19:26 50.03092 14.19733 8304 ft 306 kts 147°
2026-04-25 19:26 50.01320 14.21607 9096 ft 309 kts 149°
2026-04-25 19:26 49.99524 14.23405 9884 ft 312 kts 150°
2026-04-25 19:26 49.97662 14.25202 10590 ft 316 kts 151°
2026-04-25 19:27 49.95748 14.27010 11096 ft 328 kts 151°
2026-04-25 19:27 49.94440 14.28251 11405 ft 336 kts 151°
2026-04-25 19:27 49.91726 14.30805 12043 ft 353 kts 151°
2026-04-25 19:27 49.89579 14.32814 12480 ft 366 kts 151°
2026-04-25 19:28 49.87373 14.34933 12996 ft 376 kts 150°
2026-04-25 19:28 49.85141 14.37100 13645 ft 381 kts 150°
2026-04-25 19:28 49.82909 14.39253 14267 ft 385 kts 150°
2026-04-25 19:28 49.80619 14.41439 14919 ft 388 kts 151°
2026-04-25 19:29 49.78312 14.43626 15558 ft 391 kts 151°
2026-04-25 19:29 49.75979 14.45826 16194 ft 395 kts 151°
2026-04-25 19:29 49.73621 14.48044 16810 ft 398 kts 151°
2026-04-25 19:29 49.71240 14.50280 17427 ft 402 kts 151°
2026-04-25 19:30 49.68859 14.52585 18038 ft 407 kts 146°
2026-04-25 19:30 49.66696 14.55438 18585 ft 412 kts 135°
2026-04-25 19:30 49.64850 14.58852 19105 ft 417 kts 124°
2026-04-25 19:30 49.63309 14.62581 19639 ft 420 kts 121°
2026-04-25 19:31 49.61783 14.66446 20145 ft 423 kts 121°
2026-04-25 19:31 49.60245 14.70335 20679 ft 426 kts 121°
2026-04-25 19:31 49.58677 14.74232 21171 ft 429 kts 122°
2026-04-25 19:31 49.57080 14.78136 21665 ft 433 kts 122°
2026-04-25 19:32 49.55456 14.82061 22154 ft 436 kts 124°
2026-04-25 19:32 49.53551 14.85706 22628 ft 439 kts 135°
2026-04-25 19:32 49.51301 14.88797 23106 ft 440 kts 144°
2026-04-25 19:32 49.49594 14.90589 23438 ft 440 kts 152°
2026-04-25 19:33 49.46013 14.93535 23986 ft 443 kts 155°
2026-04-25 19:33 49.43262 14.95698 24376 ft 445 kts 155°
2026-04-25 19:33 49.40494 14.97867 24754 ft 448 kts 155°
2026-04-25 19:33 49.37718 15.00059 25141 ft 450 kts 155°
2026-04-25 19:34 49.34930 15.02279 25519 ft 453 kts 154°
2026-04-25 19:34 49.32131 15.04523 25889 ft 455 kts 154°
2026-04-25 19:34 49.29356 15.06753 26260 ft 457 kts 154°
2026-04-25 19:34 49.26532 15.09025 26626 ft 460 kts 154°
2026-04-25 19:35 49.23698 15.11304 26984 ft 462 kts 154°
2026-04-25 19:35 49.20845 15.13595 27331 ft 464 kts 154°
2026-04-25 19:35 49.17979 15.15892 27675 ft 466 kts 154°
2026-04-25 19:35 49.15099 15.18196 28033 ft 468 kts 154°
2026-04-25 19:36 49.12217 15.20499 28448 ft 468 kts 154°
2026-04-25 19:36 49.09325 15.22807 28802 ft 470 kts 154°
2026-04-25 19:36 49.06463 15.25088 29121 ft 472 kts 154°
2026-04-25 19:36 49.03556 15.27401 29514 ft 471 kts 154°
2026-04-25 19:37 49.00657 15.29707 30018 ft 469 kts 154°
2026-04-25 19:37 48.97771 15.31998 30434 ft 467 kts 154°
2026-04-25 19:37 48.94815 15.33975 30753 ft 464 kts 165°
2026-04-25 19:37 48.91700 15.35155 31048 ft 460 kts 175°
2026-04-25 19:38 48.88531 15.35628 31393 ft 456 kts 179°
2026-04-25 19:38 48.85371 15.35983 31751 ft 455 kts 179°
2026-04-25 19:38 48.82217 15.36323 32092 ft 454 kts 179°
2026-04-25 19:38 48.79065 15.36673 32411 ft 454 kts 179°
2026-04-25 19:39 48.75959 15.37033 32727 ft 453 kts 179°
2026-04-25 19:39 48.72817 15.37412 33027 ft 453 kts 179°
2026-04-25 19:39 48.66487 15.38199 33006 ft 457 kts 179°
2026-04-25 19:40 48.60187 15.38998 32988 ft 450 kts 179°
2026-04-25 19:40 48.53953 15.39786 33008 ft 449 kts 179°
2026-04-25 19:41 48.47765 15.40560 33015 ft 449 kts 179°
2026-04-25 19:41 48.42542 15.41212 33013 ft 450 kts 179°
2026-04-25 19:42 48.35287 15.42117 33011 ft 451 kts 179°
2026-04-25 19:42 48.29032 15.42895 33009 ft 451 kts 179°
2026-04-25 19:43 48.22824 15.43665 33006 ft 451 kts 179°
2026-04-25 19:43 48.16583 15.44438 33011 ft 450 kts 179°
2026-04-25 19:44 48.10355 15.45208 33021 ft 449 kts 179°
2026-04-25 19:44 48.04139 15.45973 33020 ft 447 kts 179°
2026-04-25 19:45 47.97942 15.46717 33028 ft 445 kts 181°
2026-04-25 19:45 47.91846 15.45943 33027 ft 438 kts 192°
2026-04-25 19:46 47.85865 15.44642 33032 ft 437 kts 192°
2026-04-25 19:46 47.79847 15.43367 33028 ft 436 kts 192°
2026-04-25 19:47 47.73848 15.42152 33039 ft 434 kts 192°
2026-04-25 19:47 47.67872 15.40965 33032 ft 432 kts 192°
2026-04-25 19:48 47.61920 15.39792 33029 ft 431 kts 192°
2026-04-25 19:48 47.56008 15.38622 33057 ft 435 kts 192°
2026-04-25 19:49 47.50983 15.37631 33066 ft 428 kts 192°
2026-04-25 19:49 47.47178 15.36893 33314 ft 408 kts 192°
2026-04-25 19:49 47.44358 15.36342 33468 ft 410 kts 193°
2026-04-25 19:50 47.38724 15.35231 33874 ft 410 kts 193°
2026-04-25 19:50 47.35871 15.34667 33941 ft 416 kts 193°
2026-04-25 19:51 47.30066 15.33525 34050 ft 426 kts 193°
2026-04-25 19:51 47.24158 15.32369 34208 ft 435 kts 193°
2026-04-25 19:51 47.21159 15.31787 34428 ft 434 kts 192°
2026-04-25 19:52 47.18168 15.31208 34661 ft 433 kts 192°
2026-04-25 19:52 47.15180 15.30630 34902 ft 433 kts 192°
2026-04-25 19:52 47.12195 15.30052 35014 ft 434 kts 192°
2026-04-25 19:53 47.06178 15.28886 35007 ft 435 kts 192°
2026-04-25 19:53 47.00223 15.27738 35014 ft 430 kts 192°
2026-04-25 19:54 46.94351 15.26606 35013 ft 427 kts 192°
2026-04-25 19:54 46.88473 15.25474 35014 ft 425 kts 192°
2026-04-25 19:55 46.82613 15.24347 35005 ft 424 kts 192°
2026-04-25 19:55 46.76764 15.23226 35003 ft 424 kts 192°
2026-04-25 19:56 46.70910 15.22105 34997 ft 425 kts 192°
2026-04-25 19:56 46.65031 15.20981 34989 ft 426 kts 193°
2026-04-25 19:57 46.59203 15.19437 34986 ft 426 kts 197°
2026-04-25 19:57 46.53434 15.17672 34989 ft 427 kts 197°
2026-04-25 19:58 46.47602 15.15901 34986 ft 429 kts 196°
2026-04-25 19:58 46.41747 15.14165 34986 ft 430 kts 196°
2026-04-25 19:59 46.35887 15.12447 34992 ft 430 kts 196°
2026-04-25 19:59 46.30069 15.10749 34990 ft 429 kts 196°
2026-04-25 20:00 46.24234 15.09049 34991 ft 427 kts 196°
2026-04-25 20:00 46.18415 15.07357 35004 ft 426 kts 196°
2026-04-25 20:01 46.09713 15.04831 34999 ft 424 kts 196°
2026-04-25 20:01 46.03933 15.03159 34995 ft 423 kts 196°
2026-04-25 20:02 45.98214 15.01507 34993 ft 417 kts 196°
2026-04-25 20:02 45.92615 14.99900 35006 ft 407 kts 196°
2026-04-25 20:03 45.87078 14.98304 35011 ft 405 kts 197°
2026-04-25 20:03 45.81553 14.96714 35015 ft 405 kts 196°
2026-04-25 20:04 45.76069 14.95143 35013 ft 404 kts 197°
2026-04-25 20:04 45.70545 14.93563 35020 ft 405 kts 196°
2026-04-25 20:05 45.65012 14.91984 35026 ft 406 kts 196°
2026-04-25 20:05 45.59471 14.90406 35024 ft 407 kts 196°
2026-04-25 20:06 45.53947 14.88835 35031 ft 408 kts 196°
2026-04-25 20:06 45.48379 14.87256 35022 ft 409 kts 196°
2026-04-25 20:07 45.42863 14.85380 35042 ft 407 kts 200°
2026-04-25 20:07 45.37413 14.83144 35042 ft 408 kts 201°
2026-04-25 20:08 45.31955 14.80894 35041 ft 409 kts 201°
2026-04-25 20:08 45.26510 14.78690 35045 ft 410 kts 201°
2026-04-25 20:09 45.21012 14.76488 35032 ft 411 kts 200°
2026-04-25 20:09 45.15507 14.74291 35043 ft 411 kts 200°
2026-04-25 20:10 45.09998 14.72098 35041 ft 411 kts 200°
2026-04-25 20:10 45.04524 14.69923 35031 ft 411 kts 200°
2026-04-25 20:11 44.99020 14.67740 35042 ft 411 kts 200°
2026-04-25 20:11 44.93513 14.65560 35027 ft 411 kts 200°
2026-04-25 20:12 44.88013 14.63387 35026 ft 410 kts 200°
2026-04-25 20:12 44.84374 14.61952 35025 ft 410 kts 200°
2026-04-25 20:13 44.77064 14.59074 35024 ft 409 kts 200°
2026-04-25 20:13 44.71581 14.56920 35023 ft 409 kts 200°
2026-04-25 20:14 44.66093 14.54769 35026 ft 409 kts 200°
2026-04-25 20:14 44.60641 14.52636 35026 ft 410 kts 200°
2026-04-25 20:15 44.55149 14.50490 35031 ft 410 kts 200°
2026-04-25 20:15 44.49656 14.48314 35039 ft 410 kts 201°
2026-04-25 20:16 44.44221 14.45903 35038 ft 410 kts 202°
2026-04-25 20:16 44.38821 14.43459 35042 ft 411 kts 202°
2026-04-25 20:17 44.33373 14.41023 35043 ft 412 kts 201°
2026-04-25 20:17 44.27908 14.38602 35050 ft 412 kts 201°
2026-04-25 20:18 44.22432 14.36186 35047 ft 413 kts 201°
2026-04-25 20:18 44.16948 14.33771 35047 ft 414 kts 201°
2026-04-25 20:19 44.11491 14.31373 35046 ft 414 kts 201°
2026-04-25 20:19 44.05994 14.28962 35051 ft 414 kts 201°
2026-04-25 20:20 44.00495 14.26554 35054 ft 415 kts 201°
2026-04-25 20:20 43.94986 14.24147 35055 ft 415 kts 201°
2026-04-25 20:21 43.89519 14.21762 35053 ft 415 kts 201°
2026-04-25 20:21 43.84008 14.19362 35052 ft 415 kts 201°
2026-04-25 20:22 43.80329 14.17764 35052 ft 415 kts 200°
2026-04-25 20:22 43.72822 14.15377 35053 ft 417 kts 194°
2026-04-25 20:23 43.67112 14.13908 35050 ft 417 kts 193°
2026-04-25 20:23 43.61450 14.12432 35053 ft 417 kts 194°
2026-04-25 20:24 43.55754 14.10915 35051 ft 417 kts 194°
2026-04-25 20:24 43.50059 14.09385 35055 ft 417 kts 194°
2026-04-25 20:25 43.44362 14.07853 35054 ft 417 kts 194°
2026-04-25 20:25 43.38708 14.06336 35054 ft 417 kts 194°
2026-04-25 20:26 43.33010 14.04810 35053 ft 417 kts 193°
2026-04-25 20:26 43.27310 14.03287 35056 ft 417 kts 193°
2026-04-25 20:27 43.21613 14.01768 35054 ft 417 kts 193°
2026-04-25 20:27 43.15951 14.00260 35057 ft 417 kts 193°
2026-04-25 20:28 43.10251 13.98746 35064 ft 417 kts 193°
2026-04-25 20:28 43.04549 13.97234 35064 ft 417 kts 193°
2026-04-25 20:29 42.98848 13.95725 35058 ft 417 kts 193°
2026-04-25 20:29 42.93186 13.94229 35061 ft 417 kts 193°
2026-04-25 20:30 42.87482 13.92725 35066 ft 418 kts 193°
2026-04-25 20:30 42.81776 13.91224 35064 ft 418 kts 193°
2026-04-25 20:31 42.76069 13.89724 35071 ft 418 kts 192°
2026-04-25 20:31 42.70398 13.88237 35069 ft 418 kts 192°
2026-04-25 20:32 42.64688 13.86743 35076 ft 418 kts 192°
2026-04-25 20:32 42.58974 13.85250 35074 ft 418 kts 192°
2026-04-25 20:33 42.53265 13.83762 35067 ft 418 kts 192°
2026-04-25 20:33 42.48517 13.82526 35072 ft 418 kts 192°
2026-04-25 20:34 42.41882 13.80802 35076 ft 418 kts 192°
2026-04-25 20:34 42.36174 13.79322 35085 ft 417 kts 192°
2026-04-25 20:35 42.30466 13.77845 35104 ft 417 kts 192°
2026-04-25 20:35 42.24762 13.76372 35103 ft 418 kts 192°
2026-04-25 20:36 42.19093 13.74911 35109 ft 417 kts 192°
2026-04-25 20:36 42.13392 13.73442 35112 ft 417 kts 192°
2026-04-25 20:37 42.07683 13.71975 35113 ft 417 kts 192°
2026-04-25 20:37 42.01976 13.70512 35118 ft 417 kts 192°
2026-04-25 20:38 41.96314 13.69063 35121 ft 417 kts 191°
2026-04-25 20:38 41.90611 13.67605 35117 ft 417 kts 191°
2026-04-25 20:39 41.84907 13.66150 35127 ft 417 kts 191°
2026-04-25 20:39 41.80157 13.64941 35119 ft 417 kts 192°
2026-04-25 20:40 41.76311 13.63969 33878 ft 439 kts 191°
2026-04-25 20:40 41.73269 13.63196 33105 ft 442 kts 192°
2026-04-25 20:40 41.70321 13.62448 33350 ft 422 kts 191°
2026-04-25 20:40 41.67483 13.61728 33379 ft 407 kts 191°
2026-04-25 20:41 41.64744 13.61034 33419 ft 392 kts 191°
2026-04-25 20:41 41.62081 13.60360 33454 ft 389 kts 191°
2026-04-25 20:41 41.56687 13.58993 33521 ft 401 kts 191°
2026-04-25 20:42 41.53989 13.58311 33901 ft 397 kts 191°
2026-04-25 20:42 41.51284 13.57628 34263 ft 393 kts 191°
2026-04-25 20:42 41.48609 13.56954 34606 ft 389 kts 191°
2026-04-25 20:42 41.45961 13.56288 34952 ft 385 kts 191°
2026-04-25 20:43 41.43336 13.55628 35117 ft 387 kts 191°
2026-04-25 20:43 41.40661 13.54955 35116 ft 392 kts 191°
2026-04-25 20:43 41.35250 13.53595 35128 ft 403 kts 191°
2026-04-25 20:44 41.29655 13.52193 35129 ft 414 kts 191°
2026-04-25 20:44 41.23929 13.50760 35118 ft 422 kts 191°
2026-04-25 20:45 41.18132 13.49313 35111 ft 424 kts 191°
2026-04-25 20:45 41.12360 13.47874 35098 ft 421 kts 191°
2026-04-25 20:46 41.06661 13.46456 35100 ft 413 kts 191°
2026-04-25 20:46 41.01042 13.45060 35107 ft 412 kts 191°
2026-04-25 20:47 40.95391 13.43659 35114 ft 412 kts 191°
2026-04-25 20:47 40.89735 13.42259 35119 ft 413 kts 191°
2026-04-25 20:48 40.84105 13.40867 35123 ft 414 kts 191°
2026-04-25 20:48 40.78425 13.39466 35121 ft 416 kts 191°
2026-04-25 20:49 40.72745 13.38067 35124 ft 417 kts 190°
2026-04-25 20:49 40.67015 13.36659 35128 ft 418 kts 190°
2026-04-25 20:50 40.61279 13.35251 35127 ft 419 kts 190°
2026-04-25 20:50 40.55537 13.33844 35129 ft 419 kts 190°
2026-04-25 20:51 40.49834 13.32449 35125 ft 419 kts 190°
2026-04-25 20:51 40.44102 13.31050 35127 ft 418 kts 190°
2026-04-25 20:52 40.40276 13.30117 35128 ft 417 kts 190°
2026-04-25 20:52 40.32703 13.28274 35130 ft 416 kts 190°
2026-04-25 20:53 40.26995 13.26888 35131 ft 415 kts 190°
2026-04-25 20:53 40.21349 13.25519 35138 ft 414 kts 190°
2026-04-25 20:54 40.15676 13.24146 35136 ft 414 kts 190°
2026-04-25 20:54 40.09993 13.22772 35134 ft 414 kts 190°
2026-04-25 20:55 40.04344 13.21410 35139 ft 415 kts 191°
2026-04-25 20:55 39.98656 13.20040 35143 ft 415 kts 190°
2026-04-25 20:56 39.92994 13.18679 35144 ft 416 kts 190°
2026-04-25 20:56 39.87279 13.17307 35143 ft 417 kts 190°
2026-04-25 20:57 39.82513 13.16165 35143 ft 418 kts 190°
2026-04-25 20:57 39.76783 13.14794 35144 ft 419 kts 190°
2026-04-25 20:58 39.71062 13.13427 35144 ft 420 kts 190°
2026-04-25 20:58 39.65296 13.12052 35144 ft 421 kts 190°
2026-04-25 20:59 39.59510 13.10675 35146 ft 422 kts 190°
2026-04-25 20:59 39.53736 13.09303 35142 ft 422 kts 190°
2026-04-25 21:00 39.48949 13.08167 35143 ft 423 kts 191°
2026-04-25 21:01 39.39305 13.05883 35147 ft 423 kts 191°
2026-04-25 21:01 39.33504 13.04513 35149 ft 423 kts 191°
2026-04-25 21:02 39.27706 13.03145 35150 ft 423 kts 191°
2026-04-25 21:02 39.21932 13.01786 35148 ft 423 kts 191°
2026-04-25 21:03 39.16161 13.00429 35152 ft 423 kts 191°
2026-04-25 21:03 39.10355 12.99067 35151 ft 422 kts 191°
2026-04-25 21:04 39.04566 12.97711 35151 ft 422 kts 191°
2026-04-25 21:04 38.98808 12.96364 35153 ft 422 kts 191°
2026-04-25 21:05 38.93026 12.95014 35153 ft 422 kts 191°
2026-04-25 21:05 38.87267 12.93671 35148 ft 422 kts 191°
2026-04-25 21:06 38.81488 12.92326 35143 ft 422 kts 191°
2026-04-25 21:06 38.75685 12.90978 35143 ft 422 kts 191°
2026-04-25 21:07 38.69927 12.89642 35141 ft 422 kts 191°
2026-04-25 21:07 38.64126 12.88299 35139 ft 422 kts 191°
2026-04-25 21:08 38.58360 12.86966 35137 ft 423 kts 191°
2026-04-25 21:08 38.52583 12.85632 35133 ft 423 kts 191°
2026-04-25 21:09 38.43861 12.83623 35132 ft 423 kts 191°
2026-04-25 21:09 38.38088 12.82296 35131 ft 423 kts 191°
2026-04-25 21:10 38.32275 12.80962 35128 ft 424 kts 191°
2026-04-25 21:10 38.26459 12.79629 35129 ft 424 kts 191°
2026-04-25 21:11 38.20672 12.78306 35127 ft 424 kts 191°
2026-04-25 21:11 38.14841 12.76974 35125 ft 424 kts 191°
2026-04-25 21:12 38.09051 12.75653 35129 ft 425 kts 191°
2026-04-25 21:12 38.04194 12.74547 35120 ft 425 kts 191°
2026-04-25 21:13 37.97414 12.73006 35125 ft 425 kts 192°
2026-04-25 21:13 37.91569 12.71680 35124 ft 426 kts 192°
2026-04-25 21:14 37.85749 12.70362 35127 ft 426 kts 192°
2026-04-25 21:14 37.79943 12.69048 35120 ft 426 kts 192°
2026-04-25 21:15 37.74100 12.67729 35126 ft 426 kts 192°
2026-04-25 21:15 37.68252 12.66410 35122 ft 426 kts 192°
2026-04-25 21:16 37.62427 12.65099 35123 ft 427 kts 192°
2026-04-25 21:16 37.56565 12.63781 35124 ft 427 kts 193°
2026-04-25 21:17 37.50707 12.62467 35127 ft 427 kts 193°
2026-04-25 21:17 37.44855 12.61156 35128 ft 428 kts 193°
2026-04-25 21:18 37.39001 12.59846 35127 ft 429 kts 193°
2026-04-25 21:18 37.33108 12.58530 35136 ft 430 kts 193°
2026-04-25 21:19 37.27207 12.57214 35133 ft 431 kts 193°
2026-04-25 21:19 37.21330 12.55905 35134 ft 431 kts 193°
2026-04-25 21:20 37.16410 12.54773 35143 ft 431 kts 197°
2026-04-25 21:20 37.09740 12.52220 35152 ft 428 kts 203°
2026-04-25 21:21 37.04130 12.49763 35143 ft 429 kts 203°
2026-04-25 21:21 37.01653 12.48697 35150 ft 429 kts 202°
2026-04-25 21:22 36.96018 12.46334 35146 ft 430 kts 202°
2026-04-25 21:22 36.90329 12.44001 35152 ft 430 kts 202°
2026-04-25 21:23 36.84636 12.41683 35154 ft 430 kts 202°
2026-04-25 21:23 36.78941 12.39369 35151 ft 429 kts 202°
2026-04-25 21:24 36.73260 12.37062 35150 ft 429 kts 202°
2026-04-25 21:24 36.67619 12.34776 35150 ft 428 kts 202°
2026-04-25 21:25 36.61943 12.32477 35151 ft 428 kts 202°
2026-04-25 21:25 36.56264 12.30182 35153 ft 428 kts 202°
2026-04-25 21:26 36.50625 12.27905 35151 ft 427 kts 202°
2026-04-25 21:26 36.44991 12.25634 35152 ft 427 kts 202°
2026-04-25 21:27 36.39327 12.23356 35148 ft 427 kts 202°
2026-04-25 21:27 36.33686 12.21089 35148 ft 427 kts 202°
2026-04-25 21:28 36.28054 12.18829 35147 ft 427 kts 202°
2026-04-25 21:28 36.22402 12.16565 35151 ft 427 kts 202°
2026-04-25 21:29 36.16738 12.14300 35150 ft 427 kts 202°
2026-04-25 21:29 36.11109 12.12052 35149 ft 427 kts 202°
2026-04-25 21:30 36.05435 12.09789 35148 ft 427 kts 202°
2026-04-25 21:30 36.00730 12.07916 35128 ft 424 kts 202°
2026-04-25 21:31 35.97045 12.06454 34744 ft 416 kts 202°
2026-04-25 21:31 35.94289 12.05360 34289 ft 416 kts 202°
2026-04-25 21:31 35.91562 12.04278 34147 ft 406 kts 202°
2026-04-25 21:31 35.88880 12.03216 34004 ft 404 kts 203°
2026-04-25 21:32 35.83423 12.01043 33804 ft 419 kts 202°
2026-04-25 21:32 35.80667 11.99947 33687 ft 421 kts 202°
2026-04-25 21:32 35.77886 11.98847 33557 ft 419 kts 202°
2026-04-25 21:33 35.75109 11.97752 33433 ft 417 kts 202°
2026-04-25 21:33 35.72347 11.96662 33310 ft 415 kts 202°
2026-04-25 21:33 35.69597 11.95579 33183 ft 413 kts 202°
2026-04-25 21:33 35.66894 11.94514 33055 ft 410 kts 202°
2026-04-25 21:34 35.64173 11.93442 32939 ft 408 kts 202°
2026-04-25 21:34 35.61473 11.92378 32813 ft 406 kts 202°
2026-04-25 21:34 35.58779 11.91317 32692 ft 404 kts 202°
2026-04-25 21:34 35.56099 11.90263 32570 ft 403 kts 202°
2026-04-25 21:35 35.53466 11.89227 32456 ft 401 kts 202°
2026-04-25 21:35 35.50802 11.88180 32338 ft 400 kts 202°
2026-04-25 21:35 35.48155 11.87141 32225 ft 399 kts 203°
2026-04-25 21:35 35.45508 11.86102 32115 ft 399 kts 203°
2026-04-25 21:36 35.42862 11.85064 31987 ft 398 kts 203°
2026-04-25 21:36 35.40212 11.84026 31879 ft 398 kts 203°
2026-04-25 21:36 35.37606 11.83005 31761 ft 398 kts 203°
2026-04-25 21:36 35.34960 11.81969 31676 ft 399 kts 203°
2026-04-25 21:37 35.31421 11.80586 31650 ft 397 kts 203°
2026-04-25 21:37 35.24399 11.77844 31642 ft 398 kts 203°
2026-04-25 21:38 35.19118 11.75785 31641 ft 398 kts 203°
2026-04-25 21:38 35.13859 11.73738 31645 ft 398 kts 203°
2026-04-25 21:39 35.08599 11.71693 31644 ft 398 kts 203°
2026-04-25 21:39 35.03307 11.69639 31646 ft 398 kts 203°
2026-04-25 21:40 34.98016 11.67588 31648 ft 397 kts 203°
2026-04-25 21:40 34.92778 11.65560 31635 ft 397 kts 203°
2026-04-25 21:41 34.87504 11.63521 31645 ft 396 kts 203°
2026-04-25 21:41 34.82245 11.61490 31646 ft 396 kts 203°
2026-04-25 21:42 34.77014 11.59473 31641 ft 396 kts 203°
2026-04-25 21:42 34.71740 11.57441 31645 ft 396 kts 203°
2026-04-25 21:43 34.66512 11.55430 31646 ft 397 kts 203°
2026-04-25 21:43 34.61234 11.53403 31644 ft 397 kts 203°
2026-04-25 21:44 34.55944 11.51374 31644 ft 398 kts 203°
2026-04-25 21:44 34.51084 11.48504 31644 ft 385 kts 221°
2026-04-25 21:45 34.49052 11.46424 31650 ft 380 kts 228°
2026-04-25 21:45 34.45848 11.42750 31639 ft 380 kts 229°
2026-04-25 21:46 34.41998 11.38349 31640 ft 381 kts 229°
2026-04-25 21:46 34.38110 11.33977 31630 ft 378 kts 229°
2026-04-25 21:46 34.36196 11.31833 31398 ft 372 kts 229°
2026-04-25 21:47 34.34304 11.29696 30949 ft 372 kts 229°
2026-04-25 21:47 34.32418 11.27552 30462 ft 373 kts 228°
2026-04-25 21:47 34.30548 11.25426 30005 ft 373 kts 228°
2026-04-25 21:47 34.29278 11.23983 29694 ft 368 kts 228°
2026-04-25 21:48 34.26822 11.21199 28878 ft 363 kts 228°
2026-04-25 21:48 34.24979 11.19110 28217 ft 361 kts 228°
2026-04-25 21:48 34.23151 11.17038 27598 ft 359 kts 228°
2026-04-25 21:48 34.21337 11.14986 27017 ft 356 kts 228°
2026-04-25 21:49 34.19540 11.12953 26455 ft 353 kts 228°
2026-04-25 21:49 34.17755 11.10935 25890 ft 350 kts 228°
2026-04-25 21:49 34.15982 11.08932 25342 ft 348 kts 228°
2026-04-25 21:49 34.14219 11.06942 24802 ft 345 kts 227°
2026-04-25 21:50 34.12471 11.04969 24274 ft 343 kts 227°
2026-04-25 21:50 34.10729 11.03004 23756 ft 341 kts 227°
2026-04-25 21:50 34.09005 11.01061 23168 ft 338 kts 227°
2026-04-25 21:50 34.07349 10.99119 22616 ft 333 kts 233°
2026-04-25 21:51 34.06038 10.96923 22517 ft 313 kts 240°
2026-04-25 21:51 34.04859 10.94790 22398 ft 298 kts 240°
2026-04-25 21:51 34.03721 10.92727 21897 ft 297 kts 240°
2026-04-25 21:51 34.02569 10.90639 21282 ft 300 kts 240°
2026-04-25 21:52 34.01503 10.88480 20656 ft 299 kts 252°
2026-04-25 21:52 34.00972 10.86060 20064 ft 299 kts 261°
2026-04-25 21:52 34.00625 10.83605 19477 ft 301 kts 262°
2026-04-25 21:52 34.00399 10.81091 18888 ft 302 kts 269°
2026-04-25 21:53 34.00327 10.78550 18310 ft 303 kts 268°
2026-04-25 21:53 34.00237 10.76034 17664 ft 304 kts 268°
2026-04-25 21:53 34.00136 10.73474 17020 ft 305 kts 268°
2026-04-25 21:53 34.00029 10.70907 16390 ft 306 kts 268°
2026-04-25 21:54 33.99916 10.68333 15758 ft 306 kts 268°
2026-04-25 21:54 33.99797 10.65765 15166 ft 306 kts 268°
2026-04-25 21:54 33.99674 10.63231 14579 ft 306 kts 268°
2026-04-25 21:54 33.99544 10.60672 13996 ft 305 kts 268°
2026-04-25 21:55 33.99406 10.58103 13346 ft 304 kts 268°
2026-04-25 21:55 33.99264 10.55564 12708 ft 303 kts 268°
2026-04-25 21:55 33.99122 10.53055 12087 ft 302 kts 268°
2026-04-25 21:55 33.98975 10.50528 11467 ft 301 kts 268°
2026-04-25 21:56 33.98826 10.48012 10864 ft 300 kts 268°
2026-04-25 21:56 33.98727 10.46349 10471 ft 299 kts 268°
2026-04-25 21:56 33.98525 10.43005 9648 ft 298 kts 268°
2026-04-25 21:56 33.98375 10.40561 9221 ft 290 kts 268°
2026-04-25 21:57 33.98188 10.38181 8932 ft 280 kts 260°
2026-04-25 21:57 33.97285 10.36141 8654 ft 277 kts 226°
2026-04-25 21:57 33.95616 10.35069 8454 ft 282 kts 193°
2026-04-25 21:57 33.93683 10.35108 8230 ft 274 kts 170°
2026-04-25 21:58 33.91923 10.35813 7983 ft 259 kts 155°
2026-04-25 21:58 33.90426 10.36911 7708 ft 245 kts 142°
2026-04-25 21:58 33.89216 10.38271 7436 ft 232 kts 128°
2026-04-25 21:58 33.88358 10.39863 7190 ft 222 kts 114°
2026-04-25 21:59 33.87798 10.41567 6857 ft 215 kts 104°
2026-04-25 21:59 33.87447 10.43292 6528 ft 209 kts 98°
2026-04-25 21:59 33.87211 10.44977 6170 ft 204 kts 94°
2026-04-25 22:00 33.86943 10.48303 5453 ft 192 kts 88°
2026-04-25 22:00 33.86922 10.49872 5105 ft 183 kts 86°
2026-04-25 22:00 33.86938 10.51353 4782 ft 177 kts 85°
2026-04-25 22:00 33.86963 10.52775 4464 ft 164 kts 85°
2026-04-25 22:01 33.86992 10.54118 4103 ft 157 kts 85°
2026-04-25 22:01 33.87022 10.55425 3745 ft 155 kts 86°
2026-04-25 22:01 33.87052 10.56711 3418 ft 155 kts 86°
2026-04-25 22:01 33.87071 10.57592 3190 ft 155 kts 86°
2026-04-25 22:02 33.87110 10.59303 2749 ft 151 kts 88°
2026-04-25 22:02 33.87139 10.60566 2553 ft 156 kts 88°
2026-04-25 22:02 33.87170 10.61908 2336 ft 162 kts 89°
2026-04-25 22:02 33.87201 10.63248 2119 ft 163 kts 89°
2026-04-25 22:03 33.87229 10.64601 1957 ft 160 kts 90°
2026-04-25 22:03 33.87251 10.65949 1745 ft 162 kts 90°
2026-04-25 22:03 33.87277 10.67306 1521 ft 163 kts 90°
2026-04-25 22:03 33.87319 10.68667 1279 ft 163 kts 89°
2026-04-25 22:04 33.87361 10.70018 1030 ft 157 kts 90°
2026-04-25 22:04 33.87380 10.71279 824 ft 150 kts 90°
2026-04-25 22:04 33.87405 10.72540 610 ft 149 kts 89°
2026-04-25 22:04 33.87440 10.73804 430 ft 152 kts 90°
2026-04-25 22:05 33.87468 10.75063 234 ft 149 kts 88°
2026-04-25 22:05 33.87510 10.76325 60 ft 151 kts 89°
2026-04-25 22:05 33.87531 10.77508 21 ft 126 kts 84°
2026-04-25 22:05 33.87561 10.78364 17 ft 62 kts 89°
2026-04-25 22:06 33.87545 10.78577 20 ft 14 kts 130°
2026-04-25 22:06 33.87458 10.78598 20 ft 13 kts 187°
2026-04-25 22:06 33.87400 10.78529 22 ft 13 kts 265°
2026-04-25 22:06 33.87396 10.78424 26 ft 12 kts 268°
2026-04-25 22:07 33.87394 10.78322 26 ft 12 kts 267°
2026-04-25 22:07 33.87392 10.78256 28 ft 12 kts 273°
2026-04-25 22:07 33.87397 10.78126 25 ft 11 kts 269°
2026-04-25 22:07 33.87394 10.78033 25 ft 11 kts 268°
2026-04-25 22:08 33.87391 10.77942 26 ft 11 kts 267°
2026-04-25 22:08 33.87389 10.77843 30 ft 13 kts 269°
2026-04-25 22:08 33.87386 10.77720 25 ft 16 kts 267°
2026-04-25 22:08 33.87382 10.77573 25 ft 19 kts 268°
2026-04-25 22:09 33.87380 10.77423 26 ft 17 kts 266°
2026-04-25 22:09 33.87375 10.77322 28 ft 8 kts 255°
2026-04-25 22:09 33.87333 10.77289 26 ft 8 kts 197°
2026-04-25 22:09 33.87278 10.77258 28 ft 10 kts 207°
2026-04-25 22:10 33.87241 10.77235 28 ft 2 kts 210°
2026-04-25 22:10 33.87226 10.77232 28 ft 2 kts 172°
2026-04-25 22:10 33.87211 10.77240 26 ft 2 kts 149°
2026-04-25 22:10 33.87197 10.77250 26 ft 2 kts 150°
2026-04-25 22:11 33.87183 10.77262 26 ft 2 kts 142°
2026-04-25 22:11 33.87171 10.77274 26 ft 2 kts 142°
2026-04-25 22:11 33.87163 10.77281 26 ft 1 kts 142°
2026-04-25 22:11 33.87162 10.77281 26 ft 0 kts 142°